Zurück zum Katalog

METEOR 3-1 DEB

LostPO
NORAD 45520·DEBRIS·🇷🇺 Russia

Gestartet Oct 24, 1985 von Plesetsk Cosmodrome

Loading…

Nächste Überflüge (nächste 24 Stunden)

TLE

VeraltetSource: Space-Track

Epoche: Nov 9, 2023, 06:47 UTC

1 45520U 85100F   23313.28285882  .00001058  00000-0  25051-2 0  9994
2 45520  82.5383 326.6338 0015059 176.6091 183.5139 13.22472497327810

Verfolge METEOR 3-1 DEB in Echtzeit mit AllMySat

Download on the App Store